Regional Weather Roundup
Issued by NWS

Home | Current Version | Previous Version | Graphics & Text | Print | Product List | Glossary On
Versions: 1 2 3 4 5 6 7 8 9 10 11 12 13 14 15 16 17 18 19 20 21 22 23 24 25 26 27 28 29 30 31 32 33 34 35 36 37 38 39 40 41 42 43 44 45 46 47 48 49 50
000
ASUS45 KTFX 181904
RWRMT
MONTANA HOURLY WEATHER ROUNDUP
NATIONAL WEATHER SERVICE GREAT FALLS MT
104 PM MDT THU SEP 18 2014

NOTE: "FAIR" INDICATES FEW OR NO CLOUDS BELOW 12000 FEET WITH NO
SIGNIFICANT WEATHER AND/OR OBSTRUCTIONS TO VISIBILITY.

* THESE STATIONS ARE NOT UNDER NWS QUALITY CONTROL. THEY DO NOT
   REPORT WEATHER SUCH AS PRECIPITATION OR FOG.

MTZ001>007-043-182000-
WEST OF THE DIVIDE
CITY           SKY/WX    TMP DP  RH WIND       PRES   REMARKS
KALISPELL      SMOKE     66  52  61 SW3       29.73F
MISSOULA       HAZE      66  54  65 E5        29.82F
BUTTE          CLOUDY    66  48  52 VRB5      29.93F
MULLAN PASS    PTCLDY    63  36  37 SW9G21    29.91S
* ESSEX        N/A       72  44  37 S6G13      N/A
* LINCOLN      N/A       65  42  43 S6G11      N/A
* LOOKOUT PASS N/A       68  37  32 SE14G19    N/A
* POLSON       N/A       73  53  50 SW3G9      N/A
* RONAN APT    PTSUNNY   72  48  43 SE10G16    N/A
* SEELEY LAKE  N/A       57  52  83 E2G8       N/A
* THOMP F APT  PTCLDY    67  48  51 E6G15      N/A
$$

MTZ008-052>055-182000-
SOUTHWEST MONTANA
CITY           SKY/WX    TMP DP  RH WIND       PRES   REMARKS
BOZEMAN        CLOUDY    63  57  81 CALM      29.90S
DILLON         CLOUDY    64  50  61 S5        29.95R
W YELLOWSTONE  PTSUNNY   57  50  78 CALM      30.05S
* THREE FORKS  CLOUDY    64  43  47 N/A        N/A
* BOULDER HILL N/A       63  49  60 S12G18     N/A
* MONIDA PASS  N/A       66  49  54 SE17G24    N/A
* RAYNOLDS PAS N/A       66  50  56 S16G24     N/A
* WHITEHALL    N/A       66  54  65 S4G9       N/A
* WISE RIVER   N/A       61  47  60 NW5        N/A
$$

MTZ009>010-012-014-046-048-049-054-182000-
EAST SLOPES AND CENTRAL MONTANA
CITY           SKY/WX    TMP DP  RH WIND       PRES   REMARKS
CUT BANK       HAZE      70  45  41 SW13      29.71F
GREAT FALLS    CLOUDY    73  46  38 W14G25    29.78R
HELENA         CLOUDY    72  50  46 CALM      29.84S
MALMSTROM AFB  CLOUDY    75  50  42 W18G25    29.79R
* CONRAD       CLOUDY    72  55  55 SW11       N/A
* EAST GLACIER N/A       67  43  42 W29G35     N/A
* MONARCH      N/A       68  43  40 S8         N/A
* PENDROY      N/A       66  49  54 SW3G8      N/A
* ROGERS PASS  N/A       63  39  41 SE2G10     N/A
* SAINT MARY   N/A       71  43  37 SW11G22    N/A
* SWEET GRASS  N/A       72  41  33 SW28G34    N/A
$$

MTZ011-013-016-021-035-040-045-047-050-051-182000-
NORTH CENTRAL MONTANA
CITY           SKY/WX    TMP DP  RH WIND       PRES   REMARKS
HAVRE          CLOUDY    75  48  39 SW18      29.67F
LEWISTOWN      HAZE      79  48  34 S10       29.79S
* CHESTER      N/A       63  50  63 SW2G7      N/A
* DENTON       N/A       76  54  47 S15G23     N/A
* GEYSER       N/A       73  47  40 W17G24     N/A
* JUDITH GAP   N/A       64  56  75 SE12       N/A
* LOMA         N/A       70  53  55 SW7        N/A
$$

MTZ017>020-022>027-061-062-182000-
NORTHEAST MONTANA
CITY           SKY/WX    TMP DP  RH WIND       PRES   REMARKS
GLASGOW        CLOUDY    72  55  55 SE6       29.65R
GLENDIVE       CLOUDY    73  55  53 SW18      29.73S
JORDAN         CLOUDY    73  52  48 W16G26    29.70R
SIDNEY         PTSUNNY  N/A N/A N/A S9        29.68F
WOLF POINT     CLOUDY    75  59  58 SW7       29.64F
* BEAVER HILL  N/A       80  54  41 S11        N/A   HI  80
* CIRCLE       N/A       75  57  54 S4G10      N/A
* LINDSAY DVD  N/A       75  51  43 S17G25     N/A
* NAVAJO       N/A       78  51  39 SW11       N/A
* SACO         N/A       68  55  63 E1         N/A
$$

MTZ028>042-056>058-182000-
SOUTHCENTRAL AND SOUTHEAST MONTANA
CITY           SKY/WX    TMP DP  RH WIND       PRES   REMARKS
BAKER          CLOUDY    84  54  36 SW7       29.76F
BILLINGS       CLOUDY    63  61  93 S13       29.83F
LIVINGSTON     LGT RAIN  66  55  68 NW9       29.90F
MILES CITY     CLOUDY    75  52  45 SW12      29.77S
* LAUREL APT   CLOUDY    61  54  78 N/A        N/A
* ROUNDUP APT  CLOUDY    66  55  68 S7         N/A
* ALZADA       N/A       83  54  37 E6         N/A
* HYSHAM       N/A       65  54  68 W2         N/A
* LAME DEER    N/A       73  47  40 W14G20     N/A
* REED POINT   N/A       68  54  61 W4         N/A
$$

REGIONAL REPORTS...DAKOTAS
CITY           SKY/WX    TMP DP  RH WIND       PRES   REMARKS
WILLISTON      CLOUDY    81  54  39 SW8       29.66F
DICKINSON      PTSUNNY   79  57  47 S14       29.74F
BEACH          N/A       79  55  44 SW10      29.75F
CROSBY         SUNNY     77  54  45 S12G22    29.64F
TIOGA          SUNNY     75  54  48 S17       29.71F
WATFORD CITY   SUNNY     81  54  39 S13       29.67F
BISMARCK       PTCLDY    79  61  54 S14       29.78F
GRAND FORKS    PTCLDY    68  55  63 S15       29.89F
FARGO          SUNNY     70  55  59 S16G22    29.91F
BUFFALO SD     PTCLDY    79  55  44 S13       29.73F
RAPID CITY     PTSUNNY   81  55  41 SE12      29.82F HI  81
$$

REGIONAL REPORTS...WYOMING/IDAHO/WASHINGTON
CITY           SKY/WX    TMP DP  RH WIND       PRES   REMARKS
GILLETTE       PTCLDY    90  43  19 W12G20    29.84F
SHERIDAN       CLOUDY    77  55  47 CALM      29.84F
CODY           CLOUDY   N/A N/A N/A N/A        N/A
YELLOWSTONE LA CLOUDY    57  48  72 CALM      30.14F
SALMON         CLOUDY    63  54  73 CALM      29.90F
MULLAN PASS    PTCLDY    63  36  37 SW9G21    29.91S
SAND POINT     CLOUDY    64  50  61 SW5       29.74S
SPOKANE        PTSUNNY   73  45  37 SW15      29.76S
$$

REGIONAL REPORTS...ALBERTA
CITY           SKY/WX    TMP DP  RH WIND       PRES   REMARKS
EDMONTON       LGT RAIN  63  48  58 N5        29.60S

$$




USA.gov is the U.S. government's official web portal to all federal, state and local government web resources and services.